{"data":{"norad_id":66021,"intl_designator":"2025-232S","name":"STARLINK-35432","alt_names":[],"object_type":"PAYLOAD","status":"ACTIVE","operator":null,"country":"US","launch_date":"2025-10-16","launch_site_code":"AFETR","launch_vehicle":null,"mission":null,"orbit_class":"UNKNOWN","rcs_meters":null,"size_class":null,"mass_kg":null,"dimensions":null,"purposes":["comms"],"wikipedia_slug":null,"has_3d_model":false,"image_url":null,"decayed_at":null,"tle_current":{"epoch":"2026-09-20T05:29:18.770208Z","epoch_age_seconds":126578,"freshness":"FRESH","line1":"1 66021U 25232S   26263.22868947  .00010583  00000+0  32389-3 0  9998","line2":"2 66021  53.1586 278.6461 0001030  86.8352 273.2769 15.34402595 53243","mean_motion":15.34402595,"eccentricity":0.000103,"inclination_deg":53.1586,"raan_deg":278.6461,"arg_perigee_deg":86.8352,"mean_anomaly_deg":273.2769,"bstar":0.00032389,"rev_number":5324,"period_min":93.847599364885,"perigee_km":461.99092158079,"apogee_km":463.40013308142,"semimajor_km":6840.8325273311,"source":"CELESTRAK","updated_at":"2026-09-21T09:00:35.771592Z"}}}